Weather History for Galax, VA

Change the Weather History Date:

Sunday, March 10, 2013

  Actual Average (KBLF) Record (KBLF)
Temperature  
Mean Temperature 53 °F 43 °F  
Max Temperature 62 °F 52 °F 73 °F (2000)
Min Temperature 44 °F 34 °F 5 °F (1996)
Degree Days  
Heating Degree Days 12 22  
Month to date heating degree days 231  
Since 1 July heating degree days 3724  
Cooling Degree Days 0 0  
Month to date cooling degree days 0  
Year to date cooling degree days 0  
Growing Degree Days 3 (Base 50)    
Moisture  
Dew Point 30 °F    
Average Humidity 42    
Maximum Humidity 57    
Minimum Humidity 27    
Precipitation  
Precipitation 0.00 in 0.11 in 1.16 in (1992)
Month to date precipitation 1.10  
Year to date precipitation 6.76  
Snow  
Snow 0.00 in - - ()
Month to date snowfall  
Since 1 July snowfall  
Snow Depth -    
Sea Level Pressure  
Sea Level Pressure 30.23 in    
Wind  
Wind Speed 7 mph (SSE)    
Max Wind Speed 14 mph    
Max Gust Speed 20 mph    
Visibility 10 miles    
Events      
T = Trace of Precipitation, MM = Missing Value Source: NWS Daily Summary

Daily Weather History Graph

Daily Weather History Graph

Search for Another Location

Airport:

Trip Planner

Search our weather history database for the weather conditions in past years. The results will help you decide how hot, cold, wet, or windy it might be!

Date:

Astronomy

Mar. 10, 2013 Rise Set
Actual Time 7:41 AM EDT 7:26 PM EDT
Civil Twilight 7:15 AM EDT 7:52 PM EDT
Nautical Twilight 6:45 AM EDT 8:22 PM EDT
Astronomical Twilight 6:15 AM EDT 8:52 PM EDT
Moon 6:39 AM EDT (3/10) 6:32 PM EDT (3/10)
Length of Visible Light 12h 36m
Length of Day
11h 45m
Waning Crescent, 2% of the Moon is Illuminated
Mar 10
Waning Crescent
Mar 11
New
Mar 19
First Quarter
Mar 27
Full
Apr 3
Last Quarter

Hourly Weather History & Observations

Time (EDT) Temp. Windchill Dew Point Humidity Pressure Visibility Wind Dir Wind Speed Gust Speed Precip Events Conditions
12:15 AM 44.6 °F 42.2 °F 26.6 °F 49% 30.28 in 10.0 mi SSE 4.6 mph - N/A   Clear
12:35 AM 46.4 °F 43.5 °F 26.6 °F 46% 30.28 in 10.0 mi SSE 5.8 mph - N/A   Clear
12:55 AM 46.4 °F 43.5 °F 26.6 °F 46% 30.28 in 10.0 mi SSE 5.8 mph - N/A   Clear
1:15 AM 44.6 °F 41.4 °F 26.6 °F 49% 30.28 in 10.0 mi SSE 5.8 mph - N/A   Clear
1:35 AM 44.6 °F 41.4 °F 26.6 °F 49% 30.27 in 10.0 mi SSE 5.8 mph - N/A   Clear
1:55 AM 46.4 °F 44.3 °F 26.6 °F 46% 30.26 in 10.0 mi SSE 4.6 mph - N/A   Mostly Cloudy
3:15 AM 46.4 °F 44.3 °F 26.6 °F 46% 30.27 in 10.0 mi SSE 4.6 mph - N/A   Mostly Cloudy
3:35 AM 46.4 °F 43.5 °F 28.4 °F 50% 30.25 in 10.0 mi SSE 5.8 mph - N/A   Overcast
3:55 AM 46.4 °F 44.3 °F 28.4 °F 50% 30.24 in 10.0 mi SSE 4.6 mph - N/A   Overcast
4:15 AM 46.4 °F 43.5 °F 28.4 °F 50% 30.24 in 10.0 mi South 5.8 mph - N/A   Scattered Clouds
4:35 AM 46.4 °F 44.3 °F 28.4 °F 50% 30.23 in 10.0 mi SSE 4.6 mph - N/A   Clear
4:55 AM 44.6 °F 42.2 °F 28.4 °F 53% 30.24 in 10.0 mi SSE 4.6 mph - N/A   Clear
5:15 AM 46.4 °F 43.5 °F 28.4 °F 50% 30.25 in 10.0 mi SSE 5.8 mph - N/A   Clear
5:35 AM 44.6 °F 40.7 °F 28.4 °F 53% 30.25 in 10.0 mi SSE 6.9 mph - N/A   Scattered Clouds
5:55 AM 46.4 °F 43.5 °F 28.4 °F 50% 30.25 in 10.0 mi SSE 5.8 mph - N/A   Mostly Cloudy
6:15 AM 44.6 °F 42.2 °F 28.4 °F 53% 30.25 in 10.0 mi SSE 4.6 mph - N/A   Overcast
6:35 AM 44.6 °F 42.2 °F 28.4 °F 53% 30.24 in 10.0 mi SSE 4.6 mph - N/A   Mostly Cloudy
6:55 AM 44.6 °F 41.4 °F 28.4 °F 53% 30.24 in 10.0 mi SSE 5.8 mph - N/A   Scattered Clouds
7:15 AM 44.6 °F 41.4 °F 28.4 °F 53% 30.25 in 10.0 mi South 5.8 mph - N/A   Scattered Clouds
8:35 AM 44.6 °F 41.4 °F 30.2 °F 57% 30.26 in 10.0 mi SSE 5.8 mph - N/A   Clear
8:55 AM 46.4 °F 43.5 °F 30.2 °F 53% 30.26 in 10.0 mi South 5.8 mph - N/A   Clear
9:15 AM 46.4 °F 42.9 °F 30.2 °F 53% 30.27 in 10.0 mi SSE 6.9 mph - N/A   Clear
9:35 AM 50.0 °F - 30.2 °F 47% 30.27 in 10.0 mi SSE 6.9 mph - N/A   Clear
9:55 AM 51.8 °F - 32.0 °F 47% 30.27 in 10.0 mi South 6.9 mph - N/A   Scattered Clouds
10:15 AM 51.8 °F - 32.0 °F 47% 30.27 in 10.0 mi South 9.2 mph - N/A   Clear
10:35 AM 53.6 °F - 30.2 °F 41% 30.27 in 10.0 mi South 9.2 mph 18.4 mph N/A   Clear
10:55 AM 55.4 °F - 30.2 °F 38% 30.27 in 10.0 mi SSW 11.5 mph - N/A   Clear
11:15 AM 55.4 °F - 30.2 °F 38% 30.27 in 10.0 mi South 10.4 mph - N/A   Clear
11:35 AM 57.2 °F - 30.2 °F 36% 30.27 in 10.0 mi SSE 6.9 mph - N/A   Clear
11:55 AM 59.0 °F - 30.2 °F 34% 30.26 in 10.0 mi South 10.4 mph 18.4 mph N/A   Clear
12:15 PM 57.2 °F - 30.2 °F 36% 30.26 in 10.0 mi South 10.4 mph 17.3 mph N/A   Clear
12:35 PM 59.0 °F - 28.4 °F 31% 30.25 in 10.0 mi South 13.8 mph 19.6 mph N/A   Clear
12:55 PM 60.8 °F - 30.2 °F 31% 30.25 in 10.0 mi South 10.4 mph - N/A   Clear
1:15 PM 60.8 °F - 30.2 °F 31% 30.24 in 10.0 mi SSE 8.1 mph 17.3 mph N/A   Clear
1:35 PM 60.8 °F - 32.0 °F 34% 30.23 in 10.0 mi South 5.8 mph 18.4 mph N/A   Clear
1:55 PM 62.6 °F - 32.0 °F 32% 30.23 in 10.0 mi South 5.8 mph - N/A   Clear
2:15 PM 62.6 °F - 28.4 °F 27% 30.22 in 10.0 mi SE 10.4 mph 16.1 mph N/A   Clear
2:35 PM 62.6 °F - 28.4 °F 27% 30.21 in 10.0 mi SSW 10.4 mph 18.4 mph N/A   Clear
2:55 PM 62.6 °F - 30.2 °F 30% 30.21 in 10.0 mi SE 10.4 mph 16.1 mph N/A   Clear
3:15 PM 62.6 °F - 30.2 °F 30% 30.20 in 10.0 mi SE 8.1 mph 17.3 mph N/A   Clear
3:35 PM 62.6 °F - 30.2 °F 30% 30.20 in 10.0 mi South 6.9 mph - N/A   Clear
3:55 PM 62.6 °F - 30.2 °F 30% 30.19 in 10.0 mi South 5.8 mph 17.3 mph N/A   Clear
4:15 PM 62.6 °F - 30.2 °F 30% 30.20 in 10.0 mi SSE 10.4 mph - N/A   Clear
4:35 PM 62.6 °F - 32.0 °F 32% 30.20 in 10.0 mi SSE 5.8 mph 19.6 mph N/A   Clear
4:55 PM 60.8 °F - 32.0 °F 34% 30.20 in 10.0 mi SSE 11.5 mph 18.4 mph N/A   Clear
5:15 PM 60.8 °F - 32.0 °F 34% 30.20 in 10.0 mi SSE 13.8 mph 19.6 mph N/A   Clear
5:35 PM 60.8 °F - 32.0 °F 34% 30.20 in 10.0 mi SSE 9.2 mph 18.4 mph N/A   Clear
5:55 PM 59.0 °F - 32.0 °F 36% 30.20 in 10.0 mi SSE 10.4 mph 19.6 mph N/A   Clear
6:15 PM 57.2 °F - 33.8 °F 41% 30.19 in 10.0 mi SSE 9.2 mph 18.4 mph N/A   Clear
6:35 PM 57.2 °F - 33.8 °F 41% 30.19 in 10.0 mi SSE 10.4 mph 17.3 mph N/A   Clear
6:55 PM 57.2 °F - 33.8 °F 41% 30.19 in 10.0 mi SSE 10.4 mph 18.4 mph N/A   Clear
7:15 PM 55.4 °F - 33.8 °F 44% 30.19 in 10.0 mi SSE 6.9 mph - N/A   Clear
7:35 PM 55.4 °F - 33.8 °F 44% 30.20 in 10.0 mi SSE 9.2 mph - N/A   Clear
7:55 PM 55.4 °F - 32.0 °F 41% 30.21 in 10.0 mi SSE 6.9 mph - N/A   Clear
8:15 PM 55.4 °F - 32.0 °F 41% 30.22 in 10.0 mi SSE 4.6 mph - N/A   Clear
8:35 PM 53.6 °F - 30.2 °F 41% 30.21 in 10.0 mi SSE 5.8 mph - N/A   Clear
8:55 PM 53.6 °F - 30.2 °F 41% 30.21 in 10.0 mi SSE 6.9 mph - N/A   Clear
9:15 PM 53.6 °F - 30.2 °F 41% 30.21 in 10.0 mi SSE 4.6 mph - N/A   Clear
9:35 PM 53.6 °F - 30.2 °F 41% 30.21 in 10.0 mi South 9.2 mph - N/A   Clear
9:55 PM 53.6 °F - 30.2 °F 41% 30.21 in 10.0 mi South 8.1 mph - N/A   Clear
10:15 PM 53.6 °F - 32.0 °F 44% 30.22 in 10.0 mi South 9.2 mph 18.4 mph N/A   Clear
10:35 PM 53.6 °F - 32.0 °F 44% 30.21 in 10.0 mi SSE 9.2 mph - N/A   Clear
10:55 PM 53.6 °F - 32.0 °F 44% 30.21 in 10.0 mi SSE 9.2 mph - N/A   Clear
11:15 PM 53.6 °F - 32.0 °F 44% 30.20 in 10.0 mi South 9.2 mph - N/A   Clear
11:35 PM 53.6 °F - 30.2 °F 41% 30.19 in 10.0 mi South 10.4 mph 17.3 mph N/A   Clear
11:55 PM 53.6 °F - 32.0 °F 44% 30.19 in 10.0 mi South 11.5 mph 18.4 mph N/A   Clear
12:15 AM 53.6 °F - 32.0 °F 44% 30.18 in 10.0 mi South 12.7 mph 19.6 mph N/A   Clear
12:35 AM 53.6 °F - 32.0 °F 44% 30.18 in 10.0 mi South 13.8 mph 19.6 mph N/A   Clear
12:55 AM 51.8 °F - 32.0 °F 47% 30.18 in 10.0 mi SSE 10.4 mph 17.3 mph N/A   Clear